Regional Weather Roundup
Issued by NWS

Home | Current Version | Previous Version | Graphics & Text | Print | Product List | Glossary On
Versions: 1 2 3 4 5 6 7 8 9 10 11 12 13 14 15 16 17 18 19 20 21 22 23 24 25 26 27 28 29 30 31 32 33 34 35 36 37 38 39 40 41 42 43 44 45 46 47 48 49 50
000
ASUS43 KBIS 170610
RWRND

NORTH DAKOTA REGIONAL WEATHER ROUNDUP
NATIONAL WEATHER SERVICE BISMARCK ND
100 AM CDT THU AUG 17 2017

NOTE: "FAIR" INDICATES FEW OR NO CLOUDS BELOW 12,000 FEET WITH NO
SIGNIFICANT WEATHER AND/OR OBSTRUCTIONS TO VISIBILITY.


NDZ001>003-009>011-017-170700-
NORTHWEST NORTH DAKOTA

CITY           SKY/WX    TMP DP  RH WIND       PRES   REMARKS
WILLISTON      CLOUDY    72  57  59 S6        29.85F
6HR MIN TEMP:  72; 6HR MAX TEMP:  82;

MINOT          CLEAR     60  53  77 CALM      29.87S
MINOT AFB      PTCLDY    56  51  85 CALM      29.86S
$$

NDZ018>021-031>035-040>046-170700-
SOUTHWEST NORTH DAKOTA

CITY           SKY/WX    TMP DP  RH WIND       PRES   REMARKS
BISMARCK       CLEAR     58  56  93 CALM      29.91F
6HR MIN TEMP:  57; 6HR MAX TEMP:  78;

DICKINSON      CLEAR     58  53  84 SE9       29.91S
GARRISON         N/A     55  54  96 CALM      29.90R
6HR MIN TEMP:  55; 6HR MAX TEMP:  76;

HETTINGER ARPT CLEAR     58  51  78 SE6       29.96S
$$

NDZ004>008-012>016-024-026-027-054-170700-
NORTHEAST NORTH DAKOTA

CITY           SKY/WX    TMP DP  RH WIND       PRES   REMARKS
GRAND FORKS    CLOUDY    60  60 100 NW7       29.82F
GRND FRKS AFB  CLOUDY    59  59 100 N7        29.83F
DEVILS LAKE    FOG       58  57  97 CALM      29.88S VSB 3/4
$$

NDZ022-023-025-028>030-036>039-047>053-170700-
SOUTHEAST NORTH DAKOTA

CITY           SKY/WX    TMP DP  RH WIND       PRES   REMARKS
FARGO          CLOUDY    65  64  97 N12       29.78F
6HR MIN TEMP:  65; 6HR MAX TEMP:  67; 6HR PCP: TRACE;

JAMESTOWN      CLOUDY    57  56  96 NW6       29.86S
$$





USA.gov is the U.S. government's official web portal to all federal, state and local government web resources and services.